Location: Newark
(55.7816°N, 8.2389°E)
Time: 22:21:52
(UTC+00:00)

LilacSat-2 - Visible Passes

Search period start: 21 February 2020 00:00
Search period end: 02 March 2020 00:00
Orbit: 512 x 536 km, 97.5° (Epoch: 21 February)

Date Brightness Start Highest point End Pass type
(mag) Time Alt. Az. Time Alt. Az. Time Alt. Az.
21 Feb ? 04:47:08 10° NNE 04:50:27 28° E 04:53:46 10° SSE visible
22 Feb ? 04:35:06 10° NE 04:38:07 22° E 04:41:07 10° SE visible
23 Feb ? 04:23:09 10° NE 04:25:44 17° E 04:28:20 10° SE visible
23 Feb ? 05:56:36 10° N 06:00:21 61° WNW 06:04:06 10° SSW visible
24 Feb ? 04:11:22 10° NE 04:13:21 14° E 04:15:19 10° ESE visible
24 Feb ? 05:44:18 10° NNE 05:48:07 81° WNW 05:51:55 10° SSW visible
25 Feb ? 04:00:09 10° ENE 04:00:57 10° E 04:01:43 10° E visible
25 Feb ? 05:32:03 10° NNE 05:35:51 77° ESE 05:39:40 10° S visible
26 Feb ? 05:19:48 10° NNE 05:23:35 58° ESE 05:27:20 10° S visible
26 Feb ? 17:45:02 10° WSW 17:46:44 13° W 17:48:28 10° WNW visible
27 Feb ? 05:07:36 10° NNE 05:11:17 44° E 05:14:56 10° S visible
27 Feb ? 17:31:56 10° SW 17:34:21 16° W 17:36:46 10° NW visible
28 Feb ? 04:55:27 10° NNE 04:58:58 34° E 05:02:28 10° SSE visible
29 Feb ? 04:43:21 10° NE 04:46:37 26° E 04:49:53 10° SSE visible
01 Mar ? 04:31:19 10° NE 04:34:16 21° E 04:37:12 10° SE visible
